Home > Weather > Chula Vista > Past weeks

Flag for U.S.A. Weather for the Past 2 Weeks in Chula Vista, California, U.S.A.

Now
50 °F

Sunny.


Feels Like: 46 °F
Forecast: 55 / 83 °F
Wind: 9 mph from Southeast

Location: Brown Field Municipal Airport

Current Time: Feb 10, 2016 at 7:51:21 AM

Latest Report: Feb 10, 2016 at 6:53 AM


Visibility: 6 mi

Pressure: 30.13 "Hg

Humidity: 46%

Dew point: 30 °F

Location of Chula VistaLocation

Historic Weather in Chula Vista — Graph

°F

Chula Vista Temperature Yesterday

Maximum temperature yesterday: 86 °F (at 1:53 PM)
Minimum temperature yesterday: 56 °F (at 6:53 AM)
Average temperature yesterday: 70 °F

High & Low Weather Summary for the Past Weeks

 TemperatureHumidityPressure
High86 °F (Feb 9, 1:53 PM)100% (Jan 28, 7:53 PM)30.35 "Hg (Jan 28, 7:53 PM)
Low36 °F (Feb 2, 2:53 AM)11% (Feb 7, 11:53 AM)29.70 "Hg (Jan 31, 2:53 PM)
Average57 °F49%30.13 "Hg
* Reported Jan 26 6:53 AM — Feb 10 6:53 AM, Chula Vista, Weather by CustomWeather, © 2016

Note: Actual official high and low records may vary slightly from our data, if they occured in-between our weather recording intervals... More about our weather records

Advertising

Chula Vista Weather History for the Previous 24 Hours

 ConditionsComfort  
Time TempWeatherWind HumidityBarometerVisibility
6:53 AM
Wed, Feb 10
50 °FSunny.9 mph46%30.13 "Hg6 mi
5:53 AM50 °FClear.8 mph48%30.11 "Hg10 mi
4:53 AM56 °FClear.7 mph34%30.11 "Hg10 mi
3:53 AM54 °FClear.6 mph40%30.10 "Hg10 mi
2:53 AM54 °FClear.7 mph40%30.10 "Hg10 mi
1:53 AM53 °FClear.7 mph43%30.10 "Hg10 mi
12:53 AM52 °FClear.8 mph50%30.10 "Hg10 mi
11:53 PM
Tue, Feb 9
61 °FClear.6 mph34%30.11 "Hg10 mi
10:53 PM62 °FClear.No wind30%30.11 "Hg10 mi
9:53 PM65 °FClear.No wind26%30.08 "Hg10 mi
8:53 PM66 °FClear.8 mph32%30.08 "Hg8 mi
7:53 PM66 °FClear.6 mph32%30.08 "Hg10 mi
6:53 PM72 °FClear.No wind22%30.09 "Hg10 mi
5:53 PM71 °FClear.No wind27%30.07 "Hg10 mi
4:53 PM78 °FSunny.5 mph20%30.06 "Hg10 mi
3:53 PM83 °FSunny.7 mph13%30.03 "Hg10 mi
2:53 PM86 °FSunny.6 mph11%30.03 "Hg10 mi
1:53 PM86 °FSunny.7 mph11%30.04 "Hg10 mi
12:53 PM85 °FSunny.5 mph13%30.07 "Hg10 mi
11:53 AM85 °FSunny.5 mph13%30.10 "Hg10 mi
10:53 AM84 °FSunny.5 mph13%30.12 "Hg10 mi
9:53 AM78 °FSunny.5 mph19%30.14 "Hg10 mi
8:53 AM72 °FSunny.3 mph23%30.15 "Hg10 mi
7:53 AM65 °FSunny.No wind27%30.13 "Hg10 mi
Weather by CustomWeather, © 2016

See weather overviewHow to use our weather pages